This demonstration page uses our WeatherBlox Daily Observations layout. Learn more.

Left ArrowRight Arrow

Hourly Observations for April 19, 2018

Temp ( °F °C ) Dew Point ( °F °C ) Humidity (%) Winds ( mph kmh ) Pressure ( in mb ) Visibility ( mi km ) Precip ( " mm )
12:53 am 00:53 Cloudy 46 7.8 34 1.1 63 63 WNW 13 20 29.87 1012 10 16 0.00 0.00
1:53 am 01:53 Cloudy 44 6.7 32 0 63 63 W 16 26 29.89 1012 10 16 0.00 0.00
2:29 am 02:29 Cloudy 42 5.6 33 0.6 71 71 WNW 18 30 29.94 1014 10 16 0.00 0.00
2:53 am 02:53 Cloudy 41 5 33 0.6 73 73 WNW 16 26 29.91 1013 10 16 0.00 0.00
3:21 am 03:21 Cloudy 41 5 32 0 70 70 W 13 20 29.94 1014 10 16 0.00 0.00
3:53 am 03:53 Cloudy 41 5 32 0 70 70 W 10 17 29.92 1013 10 16 0.00 0.00
4:53 am 04:53 Cloudy 39 3.9 29 -1.7 67 67 W 13 20 29.94 1014 10 16 0.00 0.00
5:53 am 05:53 Cloudy 39 3.9 28 -2.2 65 65 W 15 24 29.97 1015 10 16 0.00 0.00
6:39 am 06:39 Cloudy 38 3.3 30 -1.1 73 73 WNW 15 24 30.03 1017 10 16 0.00 0.00
6:53 am 06:53 Cloudy 38 3.3 31 -0.6 76 76 W 13 20 30.02 1017 10 16 0.00 0.00
7:22 am 07:22 Cloudy 37 2.8 31 -0.6 79 79 WNW 14 22 30.09 1019 10 16 0.00 0.00
7:42 am 07:42 Cloudy 38 3.3 31 -0.6 76 76 W 9 15 30.09 1019 10 16 0.00 0.00
7:53 am 07:53 Cloudy 38 3.3 31 -0.6 76 76 W 12 19 30.06 1018 10 16 0.00 0.00
8:53 am 08:53 Cloudy 38 3.3 31 -0.6 76 76 WNW 14 22 30.11 1020 10 16 0.00 0.00
9:53 am 09:53 Cloudy 39 3.9 32 0 76 76 NW 10 17 30.15 1021 10 16 0.00 0.00
10:53 am 10:53 Cloudy 40 4.4 31 -0.6 70 70 NNW 14 22 30.20 1023 10 16 0.00 0.00
11:01 am 11:01 Cloudy 40 4.4 32 0 73 73 NW 14 22 30.21 1023 10 16 0.00 0.00
11:53 am 11:53 Cloudy 43 6.1 31 -0.6 63 63 NNW 13 20 30.24 1024 10 16 0.00 0.00
12:13 pm 12:13 Mostly Cloudy 45 7.2 31 -0.6 58 58 NNW 13 20 30.24 1024 10 16 0.00 0.00
12:53 pm 12:53 Cloudy 44 6.7 30 -1.1 58 58 NW 14 22 30.26 1025 10 16 0.00 0.00
1:53 pm 13:53 Mostly Cloudy 49 9.4 33 0.6 55 55 NNW 10 17 30.27 1025 10 16 0.00 0.00
2:53 pm 14:53 Partly Cloudy 50 10 31 -0.6 48 48 N 10 17 30.28 1026 10 16 0.00 0.00
3:53 pm 15:53 Mostly Sunny 53 11.7 32 0 45 45 NW 10 17 30.28 1025 10 16 0.00 0.00
4:53 pm 16:53 Sunny 54 12.2 30 -1.1 40 40 NW 14 22 30.27 1025 10 16 0.00 0.00
5:53 pm 17:53 Sunny 55 12.8 29 -1.7 37 37 NW 12 19 30.28 1025 10 16 0.00 0.00
6:53 pm 18:53 Sunny 55 12.8 27 -2.8 34 34 NW 12 19 30.29 1026 10 16 0.00 0.00
7:53 pm 19:53 Sunny 52 11.1 27 -2.8 38 38 WNW 9 15 30.29 1026 10 16 0.00 0.00
8:53 pm 20:53 Clear 48 8.9 30 -1.1 50 50 WNW 5 7 30.30 1026 10 16 0.00 0.00
9:53 pm 21:53 Clear 49 9.4 28 -2.2 44 44 WNW 6 9 30.33 1027 10 16 0.00 0.00
10:53 pm 22:53 Clear 47 8.3 27 -2.8 46 46 NW 8 13 30.35 1028 10 16 0.00 0.00
11:53 pm 23:53 Clear 44 6.7 28 -2.2 53 53 NW 10 17 30.35 1028 10 16 0.00 0.00

Powered by AerisWeather